[ hide orbit diagram ]
For accurate long-term ephemerides, please instead use our Horizons system.This orbit viewer was implemented using two-body methods, and hence should not be used for determining accurate long-term trajectories (over several years or decades) or planetary encounter circumstances.
Orbital Elements at Epoch 2459200.5 (2020-Dec-17.0) TDB
Reference: JPL 23 (heliocentric ecliptic J2000)
Element | Value | Uncertainty (1-sigma) | Units |
e | .233599093975318 | 4.3863e-08 | |
a | 2.72498288754591 | 1.3928e-08 | au |
q | 2.08842935391694 | 1.2018e-07 | au |
i | 10.50181618356829 | 4.2194e-06 | deg |
node | 38.62287851483316 | 2.6195e-05 | deg |
peri | 323.9530789238169 | 2.7254e-05 | deg |
M | 169.5141612258168 | 9.209e-06 | deg |
tp | 2458426.844566262417 (2018-Nov-04.34456626) | 4.0769e-05 | TDB |
period | 1643.024713283437 4.50 | 1.2597e-05 3.449e-08 | d yr |
n | .2191080858915216 | 1.6799e-09 | deg/d |
Q | 3.361536421174881 | 1.7182e-08 | au |
|
| | Orbit Determination Parameters
Additional Information
|
[ hide covariance matrix ]
Orbital Elements at Epoch 2457387.5 (2015-Dec-31.0) TDB
Reference: JPL 23 (heliocentric ecliptic J2000)
Element | Value | Uncertainty (1-sigma) | Units |
e | .2321385452717294 | 4.4071e-08 | |
q | 2.095101290042456 | 1.2059e-07 | au |
tp | 2456776.762362587296 (2014-Apr-29.26236259) | 4.114e-05 | TDB |
node | 38.76843661783679 | 2.6314e-05 | deg |
peri | 323.085349454962 | 2.7353e-05 | deg |
i | 10.47493051466663 | 4.2096e-06 | deg |
|
| | Orbit Determination Parameters
Additional Information
|
Orbit Covariance (6×6)
|
|
e |
q |
tp |
node |
peri |
i |
e |
1.942288020003135E-15 |
-5.29346517358481E-15 |
-3.429267733975087E-13 |
-2.738431008575856E-15 |
-1.086566925757895E-13 |
-8.778232119158543E-16 |
q |
-5.29346517358481E-15 |
1.454127920663875E-14 |
8.79513672958163E-13 |
8.666614324532474E-15 |
2.949187547417495E-13 |
2.016250068902196E-15 |
tp |
-3.429267733975087E-13 |
8.79513672958163E-13 |
1.692459376487156E-9 |
1.815809879784548E-11 |
3.375631366175967E-10 |
-1.794111637736425E-12 |
node |
-2.738431008575856E-15 |
8.666614324532474E-15 |
1.815809879784548E-11 |
6.924043055208758E-10 |
-6.771209714882998E-10 |
-2.754056794769479E-11 |
peri |
-1.086566925757895E-13 |
2.949187547417495E-13 |
3.375631366175967E-10 |
-6.771209714882998E-10 |
7.481914003169097E-10 |
2.665178580928319E-11 |
i |
-8.778232119158543E-16 |
2.016250068902196E-15 |
-1.794111637736425E-12 |
-2.754056794769479E-11 |
2.665178580928319E-11 |
1.772104841059192E-11 |
|
Physical Parameter Table
Parameter |
Symbol |
Value |
Units |
Sigma |
Reference |
Notes |
absolute magnitude |
H |
14.65 |
|
n/a |
E2021B10 |
|
rotation period |
rot_per |
7.66683 |
h |
n/a |
LCDB (Rev. 2020-October); Warner et al., 2009 |
Result based on less than full coverage, so that the period may be wrong by 30 percent or so. Published Reference List: [Pal, A.; Szakats, R.; Kiss, C.; Bodi, A.; et al. (2019) Ap. J. Supl. Ser. 247, id.26.] |
|
18376 Quirk | Discovered 1991 Sept. 30 by R. H. McNaught at Siding Spring Observatory. |
Steven (Steve) Quirk (b. 1958) is an accomplished astrophotographer whose photographs have appeared in many books and magazines. He has been of immense assistance to the discoverer by volunteering to operate fireball patrol and meteor video cameras. |
NOTE: some special characters may not display properly (any characters within {} are an attempt to place the proper accent above a character) |
Reference: 20040504/MPCPages.arc | Last Updated: 2004-05-11 |
|
[ show close-approach data ]
|